Wind_Speed
14 7 8 9 9 11 12 11 9 9 10 9 9 8 9 8 7 8 11 13 12 12 13 13 10 10 13 12 12 15 18 17 16 17 18 22 25 27 30 31 31 31 28 28 30 30 30 30 29 28 26 24 23 24 25 24 24 24 22 23 24 24 22 20 19 19 17 16 15 15 14 13 14 13 13 13 12 10 8 7 6 6 7 7 6 6
14 9 9 9 9 11 13 11 10 11 14 11 8 8 9 9 9 9 11 13 12 9 10 15 11 9 14 11 12 18 16 13 15 16 17 21 23 25 28 30 30 31 31 30 30 31 31 31 30 29 27 25 25 27 26 25 25 24 22 24 25 23 21 20 19 18 18 16 14 15 15 15 14 14 13 13 13 12 10 9 7 7 9 9 8 8
11 9 9 10 10 10 12 12 11 12 14 11 7 6 6 9 9 10 14 13 10 8 9 15 11 6 12 10 10 13 11 13 20 22 23 25 24 24 28 31 31 32 32 30 31 32 31 31 31 28 27 26 27 28 27 26 25 24 23 24 23 22 21 21 19 17 17 16 15 15 15 16 15 15 14 13 13 13 12 11 11 11 11 10 9 8
8 8 10 11 11 12 11 13 13 11 10 10 7 5 5 7 8 8 13 13 9 9 9 12 7 6 9 8 5 7 12 16 18 20 23 26 27 27 30 32 33 33 30 27 28 30 30 32 32 29 28 28 28 28 29 27 25 23 24 23 22 21 21 20 19 18 17 18 18 17 17 17 16 16 16 14 13 13 13 13 12 10 8 8 8 9
7 8 13 12 11 13 12 13 15 10 8 10 9 7 6 8 9 8 9 8 7 8 10 13 6 3 7 9 7 6 11 15 16 18 18 19 23 24 26 26 29 31 27 24 24 25 28 31 32 31 30 29 29 29 28 27 25 24 24 23 21 21 21 21 20 19 19 20 20 19 18 18 17 17 16 16 15 13 11 10 9 8 9 10 10 12
7 11 17 15 12 15 13 12 15 11 6 8 10 10 10 12 11 10 11 6 5 5 8 15 6 1 2 4 6 8 9 10 14 16 15 18 21 22 23 23 26 28 24 23 24 25 27 28 30 32 30 30 29 28 27 25 24 23 22 22 21 21 22 22 21 20 20 19 19 19 18 17 16 16 16 15 14 11 9 7 7 8 10 12 13 14
7 14 17 15 14 15 14 11 15 15 7 6 9 10 14 16 13 10 13 9 5 5 8 12 7 2 1 4 5 5 9 10 11 11 13 20 22 22 24 25 27 27 24 25 24 26 29 28 28 31 30 29 29 27 25 23 23 23 21 21 21 21 21 21 21 21 21 20 19 18 17 16 15 14 15 14 12 10 8 7 8 8 10 12 14 13
9 16 16 16 15 14 13 11 12 15 9 6 9 10 13 15 15 13 11 8 5 5 8 9 9 5 3 5 9 6 8 9 9 9 11 18 22 23 24 26 29 29 28 28 25 25 30 28 27 29 29 28 27 26 24 23 24 23 22 22 22 22 21 21 21 21 21 20 20 19 18 17 16 15 15 14 12 10 8 8 8 10 12 13 12 11
9 14 17 18 15 11 11 10 11 15 11 8 9 11 11 12 14 13 7 5 4 6 6 7 8 6 3 7 9 7 8 8 10 12 12 16 23 26 27 28 31 30 30 31 27 26 29 28 27 27 28 28 27 25 24 24 24 23 22 22 22 23 22 21 21 20 20 20 19 19 19 20 19 18 16 14 11 9 8 8 10 12 13 11 10 8
9 14 18 17 13 9 11 11 12 14 11 8 10 11 11 11 11 9 5 4 2 6 7 9 8 5 2 6 7 7 7 9 10 11 11 17 25 28 29 31 32 32 32 33 30 27 26 27 27 27 27 28 27 26 25 25 25 24 24 23 23 23 23 22 21 21 20 19 19 19 20 21 20 18 15 13 11 9 9 9 11 11 10 8 6 4
11 16 17 15 12 10 11 12 13 13 10 9 10 10 10 9 5 4 4 1 1 3 6 9 11 8 4 5 8 9 12 14 12 11 12 17 24 28 30 34 35 35 36 35 32 28 26 26 27 27 26 27 28 27 27 26 26 26 24 24 24 23 23 23 22 21 21 20 20 21 21 19 18 16 14 12 11 10 10 9 10 9 8 7 4 1
13 14 11 12 17 14 10 12 13 12 10 10 9 7 6 4 2 3 4 1 2 3 6 7 11 9 5 5 9 11 14 16 15 15 17 17 21 28 32 34 35 36 37 36 34 31 29 27 26 26 25 26 28 28 28 28 27 27 25 25 25 24 24 24 23 23 22 22 21 20 19 17 14 13 12 11 11 11 10 10 10 9 8 6 3 1
10 11 8 11 19 18 10 9 11 11 10 10 8 5 4 2 2 4 4 2 3 4 7 10 11 7 5 9 16 17 12 14 15 17 22 22 24 30 33 33 33 34 36 36 36 34 32 28 27 27 26 27 30 30 30 29 28 28 27 26 26 26 25 24 24 23 22 22 20 17 16 14 13 12 12 11 11 11 11 11 10 9 6 2 2 4
6 9 11 11 14 17 13 7 8 8 9 11 8 5 5 5 4 6 3 2 2 3 6 8 9 5 1 5 19 21 16 19 22 24 31 32 31 33 34 34 33 34 36 36 36 36 33 29 28 29 28 28 31 31 31 30 30 30 29 28 28 27 25 24 23 22 21 20 18 16 15 13 13 13 13 13 13 13 13 13 11 9 4 1 5 7
5 7 11 9 8 14 14 8 8 6 6 9 8 5 4 4 5 4 2 3 3 3 4 1 4 4 3 6 18 20 18 23 25 27 34 34 33 35 34 34 35 35 36 36 36 35 32 31 31 31 30 30 31 31 32 32 32 31 30 29 29 27 24 22 21 20 19 19 18 17 15 14 14 14 15 15 16 15 14 14 13 10 5 6 9 9
6 5 9 9 8 16 14 8 10 8 5 7 7 4 5 4 5 4 3 4 4 1 2 1 1 2 2 5 15 16 14 18 21 25 31 31 32 35 34 34 36 35 36 37 36 34 33 33 33 33 32 32 32 33 34 34 32 32 30 29 27 25 22 20 19 18 18 18 17 16 16 16 16 16 17 18 18 16 15 12 10 9 9 10 10 8
5 4 11 10 8 15 13 7 11 9 5 5 5 5 5 4 4 5 2 2 4 2 3 3 1 2 3 2 6 15 16 15 17 21 26 29 32 34 32 34 35 35 36 37 36 35 35 34 33 33 34 34 35 35 34 33 31 30 29 27 25 23 20 18 18 17 16 15 15 16 17 17 18 19 19 20 18 17 13 9 9 10 12 11 9 9
3 4 12 11 6 5 4 3 5 6 5 5 5 5 4 4 2 5 3 1 3 3 3 4 3 0 2 2 3 8 16 16 15 18 21 26 29 29 29 33 34 35 37 36 36 36 35 34 34 34 34 35 36 36 33 31 30 28 26 25 23 21 20 19 18 17 16 16 16 17 18 18 19 20 21 20 18 15 12 12 13 13 12 11 11 10
4 3 5 8 6 1 3 3 5 6 6 5 6 5 4 4 3 1 3 3 4 3 3 5 6 3 5 6 4 7 14 16 16 17 19 21 24 25 27 31 33 35 36 35 35 36 36 35 35 35 35 35 36 34 31 30 29 27 25 23 21 20 20 19 18 17 17 17 18 18 17 16 17 18 19 17 16 15 14 14 14 14 13 12 11 10
5 4 1 4 7 4 2 2 3 5 8 6 6 6 4 4 3 2 3 4 4 5 2 3 5 4 3 9 13 14 16 18 18 18 18 20 24 27 29 31 33 35 36 36 36 37 37 37 37 37 36 36 34 32 30 29 28 27 25 23 22 21 20 18 17 17 18 18 18 17 16 15 16 16 17 16 16 16 15 15 15 15 14 13 11 10
4 5 3 5 7 7 5 5 6 5 6 6 4 5 5 3 3 2 1 2 4 4 4 3 3 5 5 8 13 17 20 21 21 19 17 20 26 30 33 35 35 35 35 36 38 39 39 38 38 37 36 35 34 32 30 29 28 26 24 22 21 19 18 17 17 18 17 17 16 17 18 18 17 16 15 16 16 16 16 16 16 16 15 13 11 9
3 5 5 6 5 7 6 5 8 7 7 8 4 3 6 5 4 3 2 3 3 3 4 5 4 6 5 4 9 16 19 18 22 23 18 22 30 34 36 37 37 37 37 36 38 40 40 39 38 37 35 34 33 31 30 29 27 25 22 21 19 18 18 19 19 18 16 16 17 18 19 19 19 18 17 18 18 18 18 18 17 16 14 13 11 9
4 5 5 5 4 7 7 7 11 10 7 8 5 3 5 5 5 5 3 4 3 2 3 4 3 6 6 4 6 13 19 21 27 28 21 24 33 36 36 37 37 38 38 37 39 40 41 39 38 37 36 35 34 31 30 29 26 24 22 21 19 19 20 20 19 19 18 19 19 19 19 19 19 19 19 19 19 18 19 18 17 15 13 11 10 9
3 4 6 4 2 6 7 7 10 10 5 4 5 5 4 5 7 5 3 4 2 3 3 3 3 5 6 3 2 9 19 24 27 30 27 26 30 34 36 36 36 37 37 38 39 41 41 40 38 38 37 35 34 32 31 29 26 24 22 20 20 22 22 22 21 21 21 20 20 19 19 19 19 20 20 21 20 20 19 18 16 14 12 11 10 9
2 2 6 5 2 4 6 5 7 8 5 2 3 5 4 5 11 8 3 1 2 4 5 6 3 6 6 3 9 10 13 17 18 26 33 30 28 32 34 35 37 37 37 38 39 41 42 40 39 38 37 36 35 33 31 28 25 23 20 20 22 21 22 23 23 23 22 20 20 19 19 20 21 22 22 22 21 20 19 18 16 15 13 11 11 10
4 2 5 5 4 6 6 4 3 3 2 1 2 5 6 6 11 10 3 1 3 5 4 6 3 5 4 7 13 13 12 13 15 22 30 31 31 32 33 35 38 38 38 40 41 41 42 41 39 37 36 36 35 32 29 25 22 22 21 22 21 19 22 24 23 21 20 20 20 19 19 21 22 23 23 22 21 20 19 17 16 14 13 11 11 11
2 2 4 6 5 5 5 4 3 3 3 3 4 4 5 5 6 7 4 4 5 2 0 3 6 4 3 9 13 15 14 14 14 17 22 28 32 33 33 35 37 38 40 41 41 40 40 40 38 36 36 36 33 29 25 23 24 24 24 22 19 20 24 25 22 21 21 21 20 20 21 23 23 23 23 22 21 19 18 17 15 14 13 12 12 12
3 2 3 5 3 5 6 8 8 7 6 5 5 6 7 7 4 5 5 6 5 4 2 3 9 9 4 7 11 14 15 15 13 16 22 28 31 33 33 33 35 37 39 40 40 39 39 39 37 36 35 33 30 26 24 25 26 27 25 22 20 21 24 24 24 23 22 22 21 21 23 24 24 23 23 22 21 20 18 18 16 15 15 14 14 14
3 1 1 2 4 6 6 9 11 10 8 7 7 8 9 9 6 5 7 4 3 6 4 5 10 9 5 6 10 12 15 16 17 22 27 30 32 33 33 33 35 36 37 39 40 39 38 39 38 36 34 31 30 29 28 28 27 26 24 21 21 22 22 22 24 23 23 23 23 23 25 25 24 24 23 23 21 20 19 19 18 17 15 15 15 15
3 1 2 2 3 7 7 10 14 14 10 7 5 6 6 8 8 6 6 3 3 6 9 9 10 7 5 6 8 12 17 22 23 24 26 28 31 33 33 34 35 36 38 41 41 39 39 40 40 37 34 32 33 33 31 29 28 26 24 22 22 23 22 22 24 25 24 24 23 25 26 25 25 24 23 22 21 20 20 19 19 18 16 15 15 16
3 1 2 5 4 7 6 3 9 13 12 7 6 7 6 6 5 4 3 3 4 4 7 11 11 5 1 5 11 16 23 25 22 21 22 25 30 32 31 33 35 35 37 40 41 40 40 39 40 39 36 35 36 35 32 31 29 28 26 23 23 24 23 24 26 26 25 24 25 26 26 25 24 23 22 22 21 20 20 20 20 19 17 16 16 16
4 1 2 6 4 6 3 5 2 8 12 8 7 8 8 6 3 2 2 3 5 4 5 8 9 5 3 6 12 16 20 20 18 20 23 25 30 32 31 33 35 35 37 39 40 42 41 40 40 39 39 39 38 36 34 32 30 30 28 24 25 26 26 26 27 26 25 25 26 27 26 25 24 23 23 22 21 21 21 21 20 20 18 17 16 17
3 3 2 4 2 5 0 7 5 4 9 6 6 5 6 6 4 1 2 2 5 6 6 5 6 8 10 11 12 11 12 14 17 23 27 28 30 30 31 33 35 36 39 41 41 43 43 43 42 41 41 42 38 36 36 33 30 30 28 26 28 29 28 28 27 25 25 26 27 26 26 25 24 24 23 23 22 21 21 21 21 20 20 18 16 17
3 4 1 2 1 4 1 7 6 5 5 5 5 1 1 3 4 2 3 4 5 4 6 5 7 11 13 13 15 14 13 16 22 27 32 36 35 32 31 33 34 35 39 42 43 45 45 44 43 42 42 41 37 36 37 34 30 28 27 29 31 31 30 28 26 26 27 27 27 26 26 25 25 24 24 23 22 22 21 21 21 20 19 18 17 17
4 4 1 0 2 3 3 8 5 1 3 5 4 2 5 6 5 2 3 4 6 6 8 10 12 14 12 11 16 19 19 22 27 29 33 37 39 38 35 34 36 37 41 44 44 44 45 46 45 43 42 40 36 35 36 34 32 30 29 31 32 30 29 28 28 28 28 27 27 27 26 26 26 25 24 23 22 21 21 21 21 20 19 17 17 17
4 4 1 1 1 1 3 5 2 3 4 5 5 3 4 5 7 7 5 7 5 6 8 11 13 13 11 13 19 24 26 27 25 26 31 34 35 38 39 39 41 42 44 45 45 45 45 46 46 44 40 37 35 35 36 34 33 34 33 32 30 28 28 29 30 29 29 28 28 27 27 27 26 26 25 23 23 22 23 22 21 21 19 18 17 17
2 2 1 2 1 2 2 2 2 1 4 6 6 2 3 4 4 4 1 6 6 3 6 11 13 11 12 18 26 30 30 24 15 16 28 34 33 36 40 42 43 43 43 44 44 45 46 45 45 43 40 37 35 34 36 36 35 36 35 32 29 28 28 30 31 30 30 29 29 28 28 27 27 26 25 24 24 24 23 22 21 21 20 18 17 16
3 2 2 1 1 3 4 2 1 2 2 4 7 6 1 4 3 4 3 4 6 4 1 8 14 14 12 15 25 30 26 15 6 11 26 34 34 35 38 39 40 42 43 44 44 44 45 45 44 41 38 37 35 35 37 37 36 35 34 32 32 31 29 29 30 30 30 30 29 28 27 26 26 26 25 24 24 24 23 22 21 20 19 18 17 17
7 3 3 4 2 2 4 1 1 2 3 6 7 6 2 1 2 5 4 4 6 7 9 2 11 15 15 18 23 22 15 7 3 12 28 35 34 35 38 38 40 42 43 44 44 44 45 44 42 40 38 38 37 36 38 37 35 34 34 34 35 33 31 30 30 30 30 29 28 27 26 26 25 25 24 24 24 24 24 23 22 21 20 19 18 18
5 1 3 4 1 1 3 1 1 1 4 6 5 5 4 5 8 8 2 6 6 9 14 7 8 16 22 28 25 14 8 8 10 19 34 38 34 34 37 40 42 42 42 43 44 44 44 43 42 40 40 40 38 37 37 37 35 35 35 35 35 35 34 32 31 30 29 28 28 27 26 26 25 24 25 25 25 25 24 24 22 22 21 20 19 19
1 1 3 3 1 0 2 2 1 1 4 5 2 6 8 8 8 4 6 7 7 11 16 12 6 16 25 28 23 16 17 22 24 31 38 37 34 34 36 38 41 40 40 42 43 44 44 43 42 41 41 41 40 38 38 37 35 34 35 35 34 34 33 33 31 30 30 29 28 27 26 25 24 24 25 26 26 26 25 23 22 21 20 20 20 19
1 1 1 3 2 1 2 2 0 2 5 4 2 8 10 7 2 4 6 4 7 11 16 17 9 9 23 28 26 25 27 27 30 38 40 36 34 36 36 38 40 40 40 42 44 45 44 42 41 41 40 40 40 40 38 35 33 33 35 35 34 33 33 33 33 32 31 30 29 27 26 25 24 24 26 26 26 26 25 23 21 19 18 19 19 18
2 1 0 2 2 1 0 0 1 2 4 1 4 5 5 4 4 4 3 6 11 15 16 18 17 5 19 32 30 23 22 26 34 41 41 37 35 37 38 40 42 42 43 45 45 45 44 42 41 40 39 39 39 38 35 32 32 34 35 34 34 34 34 35 34 33 32 30 28 26 25 25 25 26 26 26 27 27 26 23 21 19 18 18 18 16
2 2 1 2 1 2 1 2 3 5 3 2 5 3 3 5 4 4 6 7 13 17 16 15 17 9 13 31 32 23 23 31 36 39 39 37 37 38 41 42 42 43 45 45 45 44 43 42 42 40 39 38 36 34 32 32 35 37 36 35 36 36 35 35 34 32 30 28 27 26 26 26 26 26 26 27 27 27 25 23 21 20 19 17 16 14
2 4 4 1 0 2 3 4 3 1 4 10 11 8 8 9 8 8 7 8 11 12 13 13 14 10 6 21 27 29 32 36 37 39 40 40 39 41 42 42 43 44 44 44 44 43 42 43 42 40 38 35 33 33 34 36 38 39 37 37 37 36 35 34 32 30 29 28 28 27 27 27 27 26 26 27 26 25 24 23 22 20 17 15 14 12
2 5 5 2 2 2 1 1 3 5 8 11 11 9 9 7 6 6 6 7 8 8 9 10 11 12 11 19 27 32 36 38 39 40 40 41 41 42 42 43 44 44 44 45 45 43 42 42 41 39 38 36 35 35 37 38 38 37 37 37 35 33 32 31 30 30 30 30 30 29 28 28 27 27 26 26 24 23 24 23 21 18 15 13 12 10
3 2 2 2 3 3 1 3 4 5 4 6 8 6 5 4 3 3 4 4 4 5 7 8 9 13 18 25 31 34 36 39 40 40 39 41 42 42 43 44 45 45 45 46 46 44 43 43 42 40 40 39 37 37 38 38 36 34 34 33 31 30 30 31 32 32 32 31 30 29 28 28 28 27 26 25 25 24 23 21 18 16 15 14 13 12
4 7 5 1 3 3 2 2 1 2 3 6 7 4 4 5 3 2 3 3 1 1 4 5 7 11 17 23 28 32 34 36 39 39 40 41 42 42 43 45 45 45 45 46 46 45 44 44 43 42 41 39 38 38 38 37 36 33 31 30 30 31 33 34 34 33 32 31 30 29 28 28 28 28 27 27 25 23 21 20 18 18 17 17 16 16
4 5 3 1 3 4 2 2 4 3 3 6 7 4 4 6 5 2 2 2 1 2 1 3 6 9 13 18 24 30 33 35 36 38 40 40 41 42 43 44 45 45 45 46 47 46 45 44 43 42 41 40 39 39 38 37 34 32 31 32 34 36 37 35 33 32 31 31 30 30 29 29 29 29 29 28 25 23 21 19 18 18 18 18 18 17
2 2 2 3 3 2 1 4 3 1 1 1 4 5 4 4 4 2 1 1 1 1 1 2 3 7 13 20 24 28 33 35 35 36 38 38 39 41 42 43 44 44 45 46 46 45 44 43 43 42 41 40 39 38 37 35 33 32 33 36 38 38 36 34 33 32 32 32 31 31 32 32 31 30 29 27 26 24 23 21 19 17 17 17 17 16
2 1 1 3 3 3 5 7 7 4 3 2 5 5 4 3 2 1 0 2 2 1 2 2 6 9 16 23 25 27 32 35 34 35 35 36 36 37 39 41 44 45 46 46 45 44 43 43 42 42 42 40 39 38 36 35 35 36 37 39 38 37 35 34 34 35 34 33 33 34 34 33 32 30 28 26 25 25 24 23 22 19 17 16 16 14
Wind_Direction
205 211 221 210 202 202 211 222 218 221 233 224 202 202 210 215 239 224 213 221 202 186 195 198 198 169 153 155 150 147 139 131 137 141 143 144 143 147 151 154 157 158 159 158 158 158 158 158 155 149 149 156 163 164 165 168 168 166 164 165 170 174 173 170 167 165 170 175 166 162 169 167 159 157 159 155 151 151 143 143 156 163 161 151 152 177
207 219 219 209 202 200 207 221 221 219 235 238 210 202 203 205 233 236 229 225 196 178 189 196 205 175 157 158 151 147 141 146 154 151 152 149 145 150 155 159 158 154 154 155 157 158 157 156 153 150 152 159 164 164 166 170 169 168 166 168 173 173 169 171 172 168 169 172 165 163 164 159 153 150 151 149 146 146 145 151 167 173 170 170 178 185
209 223 209 203 203 205 206 212 224 226 231 242 229 217 207 197 213 234 244 238 197 177 183 190 201 165 151 150 146 150 144 155 162 160 161 157 150 152 157 159 158 155 155 156 158 159 158 156 153 151 154 160 166 166 168 172 173 171 169 172 176 171 169 174 175 170 169 167 164 164 159 151 150 148 147 148 147 148 153 163 169 165 168 181 199 212
204 215 201 205 203 206 205 201 217 233 233 239 229 226 243 214 198 210 242 245 196 174 166 169 166 114 133 131 129 147 133 138 155 158 161 162 159 159 159 158 156 156 154 155 158 159 160 160 157 156 159 164 169 168 169 174 175 173 172 175 176 172 171 176 172 169 170 163 160 161 154 147 150 150 147 149 153 158 168 176 178 180 196 214 230 243
200 188 192 209 205 204 207 197 207 224 233 237 230 221 240 240 221 202 227 238 188 171 134 123 99 75 142 142 139 143 127 129 140 144 153 162 160 155 154 153 152 152 151 152 156 160 163 163 162 161 163 167 170 170 172 176 176 175 176 177 176 175 175 175 171 169 169 160 156 157 152 150 152 152 150 150 156 166 177 186 196 213 235 245 248 252
201 182 189 206 205 203 209 201 204 211 226 241 233 222 232 248 246 218 217 209 162 191 144 121 109 307 171 136 140 139 131 132 137 142 149 153 152 148 146 149 150 148 149 153 158 163 163 164 165 163 165 169 170 171 173 175 176 177 178 177 176 178 177 174 170 168 165 158 156 156 155 155 156 156 153 152 159 170 180 196 219 231 243 249 250 252
194 185 190 203 202 201 209 211 207 204 209 238 225 217 231 245 256 244 226 209 162 196 181 145 137 172 330 315 272 169 143 148 144 144 148 147 150 151 148 149 149 148 152 156 160 165 164 166 168 165 166 169 171 173 172 172 176 179 178 175 176 180 180 173 167 164 161 159 159 157 156 157 160 165 162 159 165 174 189 214 233 242 248 249 249 249
193 188 189 198 201 201 208 212 205 198 202 232 225 221 230 238 252 256 241 225 179 164 194 171 130 121 166 225 239 203 139 144 147 147 152 149 152 155 153 152 153 155 159 158 159 166 168 169 169 168 168 170 172 173 171 173 178 179 178 177 177 180 180 171 164 162 161 162 161 158 158 159 162 169 169 167 172 181 199 219 233 245 251 245 239 238
198 193 186 192 202 204 206 210 200 194 202 225 228 231 238 237 244 253 261 260 191 150 204 202 130 111 176 193 198 173 149 161 161 159 164 156 155 158 157 156 158 161 162 160 160 166 171 172 172 170 168 169 172 172 172 176 176 176 179 180 177 177 174 168 164 163 162 165 164 160 160 161 162 166 166 168 177 188 202 220 235 245 247 236 226 230
209 209 190 187 203 203 198 207 207 200 199 211 226 237 243 240 241 250 265 282 208 170 205 206 165 129 145 186 179 159 167 183 171 165 167 160 160 162 160 160 162 161 163 164 163 165 171 174 175 174 171 171 172 174 175 176 175 176 180 179 175 174 170 167 167 164 161 164 163 160 163 166 164 160 161 169 183 195 208 226 240 246 247 239 229 221
210 213 197 188 200 200 191 200 213 211 191 196 224 240 245 243 253 274 259 272 56 228 226 197 176 155 138 194 187 177 187 183 168 160 161 162 162 162 162 163 163 161 163 165 164 166 170 172 174 175 174 174 173 175 177 176 174 174 177 177 173 172 170 169 168 165 164 165 164 163 164 164 159 156 166 181 192 204 215 227 242 250 250 243 241 190
205 204 202 187 189 196 192 192 210 218 200 198 214 220 236 255 304 297 271 169 125 256 260 206 180 168 161 196 199 202 195 175 165 162 162 162 158 158 162 163 162 160 161 163 162 164 168 169 170 170 170 173 172 173 176 176 172 171 173 173 170 168 169 169 168 168 169 169 169 169 166 164 164 170 186 198 204 214 221 230 240 241 234 228 225 148
207 198 199 180 183 195 198 181 201 216 207 208 208 189 193 192 212 232 238 214 188 243 244 199 183 191 186 181 190 200 192 169 171 167 160 158 153 156 162 161 159 158 158 160 160 163 168 168 168 167 169 172 171 171 175 173 168 167 168 169 167 164 164 167 169 170 172 170 170 172 171 175 183 192 205 209 210 214 222 232 233 225 222 212 118 129
198 194 196 182 177 194 203 180 190 207 196 205 207 172 169 166 187 214 200 166 192 259 252 192 170 203 254 171 184 189 183 173 174 164 157 157 154 157 161 158 157 159 159 159 161 163 166 166 166 167 168 170 169 171 173 168 164 164 166 167 167 162 162 167 170 170 169 168 171 175 180 188 199 211 218 214 210 211 222 229 219 212 221 117 120 129
181 188 193 188 165 185 205 195 180 185 174 202 211 170 177 180 171 194 164 140 190 247 284 227 154 204 240 190 185 185 177 169 165 157 153 153 152 155 158 156 157 160 159 159 161 163 165 165 165 166 167 167 168 169 167 162 161 164 165 168 168 164 164 168 169 171 172 174 179 185 191 200 210 218 218 214 214 216 224 223 209 205 195 142 133 127
192 181 184 195 167 175 201 203 177 174 168 200 211 187 221 220 150 150 160 152 159 183 307 314 180 213 240 179 170 169 165 159 152 146 146 147 149 153 156 157 158 158 157 158 159 162 164 165 165 164 164 165 165 164 161 160 163 166 166 167 168 166 167 172 176 180 183 186 191 196 203 210 215 217 215 215 219 223 226 219 202 185 156 139 133 128
187 174 184 190 162 172 195 202 180 174 162 191 210 200 228 233 136 120 155 121 98 114 272 257 245 355 6 32 146 155 155 152 147 143 144 148 151 153 157 159 158 156 156 158 160 162 164 164 165 164 163 164 163 161 161 163 167 169 168 169 171 172 175 181 187 192 195 199 202 207 213 216 217 215 213 216 223 227 224 201 167 151 143 137 134 132
164 165 182 167 119 168 217 277 224 198 165 174 201 211 227 237 177 114 129 88 97 138 268 255 228 247 105 13 317 160 149 147 148 142 142 149 152 155 159 159 157 156 157 159 161 162 162 162 165 165 163 162 161 161 162 165 168 171 172 175 178 181 184 189 194 198 203 207 210 212 214 215 214 212 213 216 220 216 197 164 147 143 142 140 140 140
150 118 165 145 111 84 305 312 287 278 248 195 175 193 189 187 215 115 126 158 155 162 293 276 240 225 150 157 205 182 150 142 144 141 143 154 158 157 156 156 156 155 156 160 162 162 161 162 164 164 162 160 161 162 163 165 170 173 175 179 183 188 193 196 198 199 201 202 205 206 204 201 196 196 197 195 190 180 164 151 145 144 144 145 146 147
145 107 113 157 137 139 256 225 217 269 259 218 172 194 194 157 167 163 146 160 160 164 216 264 246 249 202 167 170 168 151 143 145 145 151 161 162 156 153 155 157 155 157 161 162 161 161 161 163 164 163 163 165 166 164 167 173 174 176 181 187 192 196 195 191 189 188 188 191 189 182 176 172 171 170 165 161 158 152 146 144 144 147 149 150 152
119 113 145 172 158 167 208 214 198 214 222 202 185 192 197 177 135 133 222 187 148 153 179 194 237 265 242 180 163 156 151 151 151 152 159 162 157 155 156 158 159 158 160 162 161 161 162 160 160 161 162 165 168 167 166 170 173 174 177 182 186 189 187 180 174 174 175 173 172 168 162 163 163 162 160 158 157 152 146 144 145 146 149 151 152 154
122 113 143 171 181 189 203 204 203 218 207 187 192 194 185 178 130 112 282 251 155 146 164 162 215 273 266 196 161 149 151 157 154 154 162 159 154 156 160 161 161 160 161 162 161 161 162 160 159 160 161 163 165 165 167 171 173 174 177 180 183 181 172 166 165 167 167 161 157 156 159 162 162 161 163 162 157 150 147 148 148 149 153 155 154 154
127 116 144 164 181 187 198 205 210 230 218 171 188 218 168 160 147 132 184 226 207 206 183 144 187 261 277 243 173 147 151 158 156 156 156 154 156 159 160 161 161 161 161 161 160 161 162 162 160 161 161 161 162 165 167 171 173 175 178 179 177 170 162 158 158 158 157 155 154 156 158 159 158 159 159 155 150 147 149 151 150 153 158 157 154 153
95 109 151 149 139 176 190 208 216 235 233 163 200 218 161 170 183 164 172 193 203 228 200 125 166 254 288 295 111 132 147 151 153 151 146 147 155 158 158 158 160 160 160 159 159 159 161 161 159 159 159 159 162 165 167 171 174 175 176 174 167 163 159 155 155 158 158 157 157 158 159 157 156 154 149 145 145 147 150 152 152 154 157 154 152 152
173 107 141 139 98 161 182 202 219 232 231 182 207 204 193 185 181 189 242 263 271 234 172 128 170 253 286 53 82 97 130 138 140 142 143 145 150 154 155 155 157 158 157 157 158 158 159 160 159 157 158 160 162 165 168 172 173 172 167 162 162 162 158 158 162 165 165 164 162 162 162 159 155 151 147 146 149 151 152 152 153 153 154 153 151 148
185 129 121 146 148 166 182 192 209 224 213 294 275 200 200 192 178 188 207 129 259 251 154 124 176 249 310 59 92 108 119 119 122 132 139 143 147 153 154 154 156 156 155 156 157 157 158 158 158 157 159 160 161 165 170 170 165 162 160 160 164 162 156 159 166 167 166 166 165 165 162 157 153 151 152 153 154 154 154 154 154 153 151 149 147 144
156 149 129 145 155 175 177 163 165 169 172 230 271 225 211 218 186 168 162 178 201 242 146 152 153 151 57 66 101 125 124 119 123 128 136 144 150 156 157 155 157 157 156 157 157 156 156 156 157 158 160 160 161 166 170 165 159 161 164 164 164 161 157 159 164 164 161 163 164 163 159 155 154 154 155 155 154 154 154 152 151 149 146 145 144 141
89 144 152 144 179 204 174 154 166 182 195 210 228 227 228 237 205 142 173 205 161 124 249 202 134 130 125 100 117 132 128 126 135 140 146 151 155 157 156 155 157 157 156 157 157 156 156 156 156 158 160 160 162 166 165 161 162 168 170 168 163 161 162 163 165 165 163 165 165 161 157 156 156 156 156 156 155 154 153 150 148 146 145 146 143 139
88 149 170 153 248 242 202 175 170 178 202 213 205 204 214 237 243 178 185 213 117 123 196 180 130 130 139 122 125 134 134 138 145 150 153 154 153 154 153 154 156 157 157 158 158 159 158 157 157 158 158 160 160 161 161 163 169 173 174 171 164 162 164 165 164 164 165 166 164 159 156 156 156 158 158 158 158 157 155 153 151 148 147 147 143 135
88 25 20 52 301 278 241 194 170 169 194 217 205 201 213 232 241 213 189 191 98 133 160 151 127 120 128 130 125 126 129 133 137 144 149 151 152 153 153 154 156 157 159 159 159 160 159 159 160 158 158 160 160 161 163 168 175 178 177 172 165 164 164 161 160 162 164 165 162 158 158 158 159 161 160 160 160 159 158 156 153 151 150 148 140 131
74 16 5 61 23 299 270 181 156 169 182 197 209 221 228 227 234 232 188 120 99 137 158 144 124 99 110 130 117 118 123 126 130 138 145 151 154 154 154 156 156 158 160 161 160 160 160 161 162 162 162 164 165 166 169 174 179 182 180 171 165 165 163 160 162 164 167 166 161 158 159 161 162 162 160 160 160 160 160 158 156 155 151 145 136 128
76 41 350 64 45 286 276 45 57 176 170 178 209 223 225 214 203 243 227 152 137 132 133 137 132 135 181 136 119 125 130 130 135 142 146 154 157 157 158 158 158 159 160 160 160 160 162 164 165 165 166 167 169 171 173 174 177 180 179 169 162 163 164 164 166 168 169 166 161 160 162 163 162 161 159 159 159 159 160 159 158 155 150 144 136 128
79 82 39 68 43 277 197 64 38 132 148 185 234 237 225 196 161 207 263 188 160 137 129 166 174 159 158 142 128 136 140 139 146 149 150 155 160 161 162 162 162 162 161 162 163 165 166 166 167 167 168 170 174 178 176 174 174 177 175 167 163 165 168 170 171 170 167 163 161 163 163 163 161 159 158 159 160 161 161 159 158 155 150 145 137 127
54 90 66 103 160 279 35 68 45 67 125 215 245 298 51 122 129 210 239 215 204 163 131 148 156 146 153 153 148 153 159 155 156 157 157 160 163 166 167 166 165 163 163 165 169 170 168 167 168 170 172 176 180 180 176 176 178 176 170 165 166 170 173 173 170 165 161 161 162 163 161 161 160 158 158 160 162 163 161 160 157 153 150 146 138 128
49 79 325 197 158 278 22 62 51 55 205 239 250 80 72 71 73 56 285 252 213 170 124 120 138 150 159 158 147 145 147 151 156 161 164 166 168 168 168 169 169 168 169 170 172 171 168 167 169 171 175 179 179 174 172 175 177 172 165 165 169 174 174 169 162 159 160 162 162 161 160 160 160 160 160 162 164 162 159 157 154 150 148 144 138 131
65 94 289 327 107 333 33 76 124 227 258 300 335 42 75 52 48 47 353 305 249 182 145 133 148 160 150 135 135 138 142 148 154 164 169 170 170 169 170 173 175 175 174 174 173 171 169 170 173 176 178 178 175 172 171 171 170 166 165 168 171 171 167 162 159 160 162 161 161 160 161 162 162 162 163 164 164 160 156 156 153 150 147 144 139 134
33 87 347 352 41 69 75 120 159 342 335 335 330 323 99 92 86 91 28 290 275 230 168 148 148 152 140 133 137 140 140 139 141 164 173 174 174 175 176 178 178 177 176 176 175 174 174 175 176 177 177 175 172 170 168 168 168 167 167 169 169 167 165 161 161 162 162 162 163 164 166 167 167 166 167 166 163 160 158 157 154 149 146 142 137 130
237 219 145 106 59 81 78 55 61 54 317 279 271 271 175 118 148 124 94 291 298 340 95 152 148 145 138 135 139 138 137 135 139 178 180 179 177 177 179 179 178 178 178 177 176 175 175 176 176 174 172 169 166 165 167 169 170 169 168 166 163 162 165 165 164 165 165 165 167 169 170 172 173 171 169 166 163 161 159 156 152 147 144 140 135 130
224 236 112 95 65 96 103 92 164 164 238 248 250 260 268 110 114 96 77 290 298 1 11 72 149 146 140 144 148 143 137 140 183 186 182 179 177 178 179 178 179 181 181 180 179 177 174 174 174 171 168 166 165 167 170 171 171 169 166 165 164 163 166 169 169 169 170 170 171 173 173 174 175 173 169 166 164 160 156 152 148 145 142 139 136 132
227 259 92 98 92 150 140 180 229 199 252 252 228 204 176 110 87 94 133 256 285 343 360 21 143 153 149 151 155 150 148 171 191 188 182 178 177 180 182 181 181 182 182 181 182 180 176 175 173 170 168 169 168 168 171 173 174 172 168 168 169 168 169 173 173 171 172 173 173 174 174 175 175 172 169 166 163 158 154 151 148 145 143 141 137 133
280 31 115 133 146 163 157 180 237 248 257 265 223 150 135 94 70 105 197 239 290 336 357 18 118 164 162 158 159 167 184 191 189 180 175 174 176 180 183 183 184 185 184 182 181 178 176 175 174 172 172 172 171 171 174 177 178 176 173 171 171 169 171 175 175 173 173 175 175 175 175 176 175 171 168 167 164 158 155 151 148 147 146 144 139 134
320 11 113 151 143 117 187 192 277 286 266 281 78 106 105 91 85 220 223 273 337 360 7 11 23 163 174 172 171 179 188 187 176 168 169 172 174 175 177 180 181 182 183 182 180 177 175 173 172 171 172 172 173 175 178 179 178 175 172 171 170 170 173 176 177 177 177 177 177 177 176 176 175 171 169 168 164 158 152 148 149 149 147 144 139 134
197 125 209 203 168 112 117 139 104 237 255 298 72 77 80 122 195 238 295 353 14 21 18 14 17 47 178 181 183 186 179 166 162 164 166 170 174 174 175 178 178 178 178 178 177 177 175 172 171 171 171 172 175 178 180 179 175 171 170 171 172 174 176 178 180 181 180 179 179 179 176 175 173 171 170 168 164 159 153 151 153 153 150 147 141 132
199 147 171 221 180 128 166 231 224 235 248 88 98 113 122 126 116 43 18 23 27 23 18 18 19 24 177 182 181 174 159 155 158 161 162 166 172 172 172 175 177 176 176 176 176 177 176 174 172 170 171 174 177 179 179 176 172 171 173 175 176 178 180 182 183 184 182 181 180 177 175 173 172 172 171 168 166 163 159 156 155 153 149 143 133 123
216 160 147 154 29 139 180 201 211 297 45 73 87 100 107 99 78 61 52 42 38 29 19 20 24 31 152 177 169 155 154 158 160 162 165 168 170 170 170 174 176 176 176 176 175 175 175 173 171 169 171 175 177 177 177 176 174 175 177 179 180 182 184 184 184 183 181 180 178 175 173 172 171 172 171 169 168 165 157 151 147 145 140 132 124 120
213 152 139 128 47 49 50 77 61 41 48 72 80 82 89 88 70 65 61 42 36 29 21 29 46 65 115 157 156 149 154 160 159 162 167 167 167 169 170 172 175 175 176 175 174 175 174 171 170 169 170 174 178 178 178 180 181 181 182 183 184 185 186 183 181 179 178 177 175 174 174 173 171 171 170 168 165 158 149 145 144 141 136 130 129 132
323 17 67 131 110 73 332 325 18 25 39 80 81 63 63 77 65 39 37 42 48 33 28 47 76 92 117 142 148 145 151 158 159 161 165 165 166 169 171 172 174 175 176 176 174 172 172 171 171 171 172 174 178 180 181 184 187 188 187 186 185 184 182 179 177 176 176 175 174 175 175 173 170 168 165 161 157 152 149 148 147 146 145 146 150 157
314 340 356 92 118 105 164 226 27 56 62 62 60 44 52 74 66 13 16 36 48 336 23 67 116 123 126 141 149 147 149 156 160 161 163 164 167 169 171 174 175 175 177 177 174 172 173 173 173 174 175 176 179 182 185 187 190 191 189 185 181 178 176 175 176 177 175 174 175 175 174 171 167 163 159 156 154 154 154 155 157 160 163 165 169 174
275 299 325 35 52 56 58 353 17 59 50 35 49 79 96 82 63 30 28 39 309 261 0 80 138 152 148 154 161 159 156 160 165 165 164 166 168 170 173 175 175 175 177 177 176 176 176 175 176 177 178 179 181 184 187 188 190 190 186 180 176 175 175 176 177 177 174 173 173 172 168 165 163 161 159 158 159 160 161 164 169 172 172 174 178 183
327 301 7 58 60 72 221 274 291 208 209 9 80 106 110 87 69 44 24 81 180 254 336 78 138 169 172 171 171 169 165 164 167 168 167 167 170 172 174 174 174 176 177 177 177 179 178 178 179 180 180 180 183 185 187 187 187 183 178 175 175 177 178 177 176 173 171 172 171 167 165 164 164 164 165 166 167 168 168 170 175 180 183 184 186 190
23 308 28 106 148 190 193 211 230 225 190 124 104 106 99 87 94 92 78 166 171 4 358 134 135 146 166 172 175 177 173 168 168 169 168 168 172 174 175 177 177 176 177 177 177 178 178 179 180 181 180 181 182 183 184 183 180 176 175 176 179 180 180 177 173 170 170 172 170 167 166 167 168 169 171 173 174 175 174 174 176 182 188 192 193 196
Height
1445 1447 1445 1441 1441 1442 1443 1443 1444 1443 1442 1442 1444 1448 1449 1451 1449 1443 1441 1437 1435 1444 1448 1449 1452 1457 1462 1463 1462 1465 1465 1466 1468 1469 1470 1472 1475 1477 1479 1482 1484 1487 1491 1494 1496 1497 1498 1500 1503 1505 1508 1512 1517 1520 1523 1524 1526 1527 1529 1532 1534 1535 1536 1537 1538 1539 1539 1539 1541 1543 1544 1545 1547 1548 1550 1550 1551 1551 1553 1554 1555 1556 1556 1557 1560 1561
1443 1444 1440 1438 1439 1439 1441 1442 1442 1442 1441 1441 1442 1444 1445 1447 1446 1440 1436 1433 1431 1440 1447 1446 1449 1455 1459 1460 1460 1461 1464 1465 1466 1467 1470 1472 1475 1478 1479 1481 1484 1487 1490 1493 1496 1498 1499 1501 1502 1504 1507 1511 1515 1519 1522 1524 1525 1526 1528 1530 1532 1534 1536 1536 1536 1537 1537 1538 1540 1541 1542 1544 1546 1547 1549 1550 1550 1551 1551 1552 1553 1554 1555 1557 1559 1559
1441 1439 1437 1436 1437 1438 1440 1440 1441 1441 1440 1440 1440 1443 1445 1442 1441 1440 1433 1428 1429 1437 1444 1445 1448 1455 1458 1459 1460 1460 1461 1463 1464 1464 1467 1471 1474 1478 1478 1480 1483 1486 1490 1493 1495 1498 1499 1501 1502 1504 1506 1510 1514 1517 1521 1523 1524 1526 1528 1530 1532 1534 1535 1535 1535 1536 1536 1537 1539 1540 1541 1543 1544 1545 1547 1548 1549 1549 1550 1552 1553 1555 1556 1556 1556 1556
1440 1437 1434 1435 1435 1436 1438 1438 1440 1441 1440 1439 1439 1443 1446 1439 1440 1443 1434 1427 1427 1430 1437 1444 1452 1458 1460 1461 1462 1461 1461 1463 1465 1466 1467 1470 1473 1476 1479 1480 1483 1486 1490 1494 1497 1499 1500 1501 1502 1503 1505 1508 1512 1516 1519 1521 1523 1525 1527 1529 1531 1532 1533 1534 1534 1535 1535 1537 1538 1539 1540 1542 1543 1544 1546 1547 1547 1548 1549 1551 1552 1553 1553 1553 1553 1554
1435 1432 1432 1432 1432 1433 1436 1437 1439 1442 1441 1437 1435 1440 1442 1436 1435 1436 1430 1426 1426 1427 1431 1444 1463 1468 1462 1463 1464 1462 1463 1464 1467 1469 1471 1473 1474 1478 1482 1483 1485 1487 1490 1494 1498 1501 1502 1502 1502 1502 1504 1507 1510 1514 1517 1519 1522 1524 1526 1528 1530 1531 1532 1533 1534 1535 1535 1536 1538 1538 1539 1541 1542 1544 1545 1546 1546 1547 1548 1549 1550 1550 1550 1551 1552 1553
1430 1429 1429 1430 1430 1431 1434 1435 1435 1439 1443 1438 1432 1432 1434 1432 1432 1430 1426 1427 1435 1440 1433 1439 1470 1482 1469 1466 1466 1461 1463 1466 1467 1469 1471 1474 1476 1479 1483 1484 1486 1489 1492 1495 1497 1500 1502 1503 1503 1503 1504 1506 1509 1513 1516 1519 1521 1523 1525 1528 1530 1531 1531 1533 1534 1534 1535 1536 1537 1538 1538 1539 1540 1542 1544 1545 1545 1546 1547 1548 1549 1549 1550 1551 1552 1553
1424 1424 1425 1427 1429 1430 1432 1433 1430 1433 1441 1440 1429 1426 1429 1428 1430 1430 1425 1428 1440 1445 1433 1428 1458 1484 1482 1478 1473 1464 1464 1467 1468 1469 1470 1473 1476 1479 1482 1484 1486 1488 1491 1494 1497 1499 1501 1503 1504 1504 1504 1506 1509 1512 1516 1519 1521 1522 1525 1528 1530 1531 1531 1533 1534 1534 1535 1536 1537 1537 1537 1538 1539 1540 1542 1543 1544 1545 1547 1548 1549 1550 1550 1551 1553 1554
1417 1420 1422 1423 1426 1428 1429 1430 1425 1426 1436 1436 1425 1423 1427 1425 1429 1431 1426 1429 1432 1432 1431 1425 1440 1474 1487 1481 1473 1467 1467 1470 1469 1470 1471 1473 1476 1479 1481 1483 1484 1486 1488 1491 1495 1498 1501 1503 1504 1505 1506 1507 1510 1512 1516 1518 1520 1522 1525 1527 1529 1531 1532 1533 1533 1534 1536 1537 1537 1538 1538 1538 1539 1540 1541 1543 1545 1546 1548 1549 1549 1550 1551 1552 1553 1554
1413 1415 1418 1419 1424 1425 1423 1423 1421 1423 1430 1429 1422 1422 1424 1423 1425 1426 1426 1430 1427 1428 1438 1432 1432 1464 1483 1472 1465 1466 1468 1472 1470 1468 1470 1472 1475 1478 1480 1482 1482 1483 1486 1489 1493 1497 1499 1502 1505 1506 1507 1508 1510 1512 1515 1517 1520 1522 1524 1526 1529 1531 1532 1533 1533 1534 1536 1537 1538 1538 1538 1539 1540 1541 1543 1544 1546 1547 1548 1549 1549 1550 1551 1552 1552 1553
1411 1410 1412 1415 1419 1419 1418 1419 1418 1420 1424 1423 1421 1421 1420 1421 1421 1421 1426 1430 1428 1434 1442 1434 1426 1453 1478 1472 1464 1468 1470 1469 1468 1467 1468 1470 1473 1476 1477 1479 1480 1481 1485 1488 1492 1495 1499 1502 1504 1506 1507 1509 1510 1512 1515 1517 1520 1522 1524 1526 1528 1530 1532 1533 1533 1534 1535 1536 1537 1538 1538 1538 1539 1541 1543 1545 1546 1547 1548 1549 1549 1550 1551 1551 1551 1552
1406 1405 1407 1408 1412 1413 1414 1416 1415 1416 1419 1419 1422 1422 1421 1420 1419 1421 1424 1425 1436 1444 1439 1430 1422 1438 1471 1475 1462 1460 1459 1456 1460 1464 1467 1469 1471 1474 1475 1476 1477 1479 1482 1486 1490 1494 1498 1501 1503 1505 1507 1508 1510 1512 1515 1517 1520 1522 1524 1526 1528 1530 1531 1532 1533 1533 1534 1535 1536 1537 1537 1538 1539 1541 1543 1544 1545 1546 1547 1548 1549 1549 1549 1549 1550 1551
1402 1404 1403 1402 1406 1409 1411 1414 1414 1413 1415 1418 1421 1423 1426 1427 1426 1430 1429 1429 1447 1453 1435 1425 1420 1429 1459 1471 1457 1448 1444 1444 1451 1456 1460 1465 1468 1470 1473 1475 1476 1478 1481 1484 1488 1492 1495 1499 1502 1504 1507 1508 1510 1512 1515 1517 1520 1522 1524 1526 1527 1529 1530 1531 1531 1532 1533 1533 1535 1536 1537 1537 1539 1540 1541 1542 1543 1544 1545 1547 1547 1548 1548 1548 1549 1550
1402 1400 1398 1399 1402 1404 1408 1413 1414 1414 1414 1417 1419 1424 1434 1439 1441 1445 1444 1441 1449 1445 1427 1419 1422 1429 1442 1447 1443 1441 1441 1442 1445 1447 1452 1458 1463 1467 1470 1473 1476 1478 1481 1484 1487 1489 1493 1497 1500 1504 1506 1508 1509 1512 1514 1517 1519 1521 1523 1525 1527 1528 1530 1530 1531 1532 1532 1533 1534 1535 1536 1537 1538 1539 1540 1541 1542 1543 1544 1546 1546 1546 1546 1547 1548 1549
1407 1400 1395 1398 1400 1399 1403 1410 1416 1416 1414 1415 1416 1424 1436 1442 1450 1456 1451 1449 1449 1438 1421 1413 1422 1432 1433 1431 1431 1431 1434 1437 1439 1443 1449 1453 1459 1464 1467 1471 1475 1478 1481 1483 1486 1488 1492 1496 1500 1503 1505 1507 1509 1511 1514 1517 1519 1521 1523 1524 1526 1527 1529 1530 1531 1532 1533 1533 1534 1535 1536 1537 1538 1538 1539 1540 1541 1542 1544 1545 1545 1545 1546 1547 1548 1549
1412 1408 1396 1394 1397 1397 1399 1402 1408 1410 1411 1412 1409 1417 1428 1430 1440 1451 1448 1448 1448 1438 1424 1419 1427 1433 1428 1425 1423 1422 1426 1432 1438 1443 1448 1454 1459 1463 1467 1470 1474 1477 1480 1483 1486 1488 1491 1495 1498 1502 1505 1507 1509 1511 1514 1516 1518 1520 1522 1524 1525 1527 1529 1531 1532 1533 1533 1533 1534 1534 1536 1537 1537 1538 1539 1540 1541 1542 1543 1544 1545 1545 1546 1547 1548 1549
1407 1406 1392 1389 1392 1393 1397 1398 1398 1404 1412 1411 1406 1414 1423 1419 1422 1433 1437 1435 1437 1439 1432 1426 1428 1425 1418 1416 1415 1421 1429 1434 1440 1446 1450 1457 1460 1463 1467 1470 1472 1475 1479 1482 1485 1488 1491 1495 1498 1501 1504 1507 1509 1512 1514 1515 1517 1519 1521 1524 1526 1528 1530 1531 1532 1533 1533 1534 1534 1535 1536 1536 1537 1538 1539 1539 1540 1541 1543 1544 1544 1545 1546 1547 1548 1549
1403 1401 1389 1388 1390 1389 1396 1397 1394 1403 1411 1410 1411 1416 1415 1409 1411 1424 1434 1430 1433 1445 1439 1427 1428 1424 1420 1423 1421 1423 1431 1435 1440 1446 1451 1457 1460 1463 1466 1468 1471 1475 1478 1481 1484 1487 1491 1494 1498 1501 1504 1507 1509 1512 1514 1515 1517 1519 1521 1523 1526 1528 1530 1531 1532 1532 1533 1533 1534 1534 1535 1535 1536 1537 1538 1539 1540 1541 1543 1544 1544 1545 1546 1547 1548 1549
1396 1399 1388 1387 1392 1390 1391 1395 1394 1396 1402 1408 1415 1414 1408 1408 1410 1417 1434 1439 1442 1452 1442 1428 1431 1431 1432 1440 1439 1433 1433 1437 1441 1445 1451 1458 1461 1464 1466 1468 1471 1473 1477 1482 1484 1487 1491 1494 1498 1501 1504 1507 1509 1511 1513 1515 1518 1519 1521 1523 1525 1527 1528 1530 1531 1531 1532 1532 1533 1533 1533 1534 1535 1536 1538 1539 1540 1542 1543 1543 1544 1545 1547 1548 1549 1549
1388 1399 1394 1385 1392 1393 1389 1396 1401 1396 1396 1402 1407 1406 1408 1419 1422 1419 1432 1443 1448 1456 1449 1434 1431 1432 1433 1440 1445 1444 1438 1437 1442 1446 1451 1457 1460 1464 1467 1469 1472 1474 1478 1482 1484 1488 1491 1494 1498 1500 1504 1507 1509 1512 1513 1515 1517 1519 1521 1523 1524 1526 1527 1528 1529 1530 1531 1531 1531 1532 1533 1534 1535 1536 1537 1538 1540 1541 1542 1543 1544 1546 1547 1548 1548 1549
1383 1399 1404 1391 1390 1396 1395 1400 1409 1406 1400 1399 1401 1403 1404 1413 1420 1420 1424 1433 1442 1452 1453 1443 1436 1431 1426 1424 1430 1436 1435 1435 1441 1446 1449 1453 1456 1461 1465 1468 1472 1475 1478 1481 1483 1487 1491 1494 1497 1500 1503 1506 1509 1512 1513 1515 1517 1518 1520 1522 1523 1525 1526 1527 1528 1529 1529 1530 1531 1532 1533 1533 1534 1535 1536 1538 1539 1541 1542 1544 1545 1546 1547 1547 1548 1548
1381 1394 1406 1400 1394 1401 1403 1401 1406 1409 1405 1403 1405 1408 1407 1407 1411 1416 1419 1420 1430 1444 1449 1449 1446 1431 1416 1412 1415 1422 1428 1430 1434 1440 1446 1450 1454 1460 1463 1467 1471 1474 1478 1480 1483 1486 1490 1493 1496 1499 1502 1505 1508 1511 1513 1515 1517 1518 1520 1521 1522 1524 1525 1526 1527 1528 1529 1530 1531 1532 1533 1533 1534 1535 1536 1538 1539 1541 1543 1545 1546 1546 1547 1547 1547 1547
1384 1392 1403 1406 1404 1406 1404 1396 1398 1402 1400 1401 1406 1407 1407 1409 1413 1424 1430 1420 1418 1429 1436 1442 1446 1430 1412 1409 1410 1414 1421 1423 1426 1433 1441 1446 1452 1458 1462 1465 1469 1473 1476 1480 1483 1486 1489 1492 1495 1498 1501 1504 1507 1510 1512 1514 1516 1517 1519 1520 1522 1524 1525 1526 1527 1528 1529 1530 1531 1532 1532 1533 1534 1536 1537 1538 1540 1542 1543 1545 1546 1546 1546 1546 1546 1546
1382 1389 1400 1407 1405 1403 1399 1394 1394 1397 1394 1396 1401 1402 1403 1406 1412 1426 1435 1426 1418 1422 1422 1430 1440 1429 1412 1409 1409 1411 1416 1419 1423 1429 1437 1445 1451 1455 1460 1465 1469 1472 1475 1479 1483 1486 1489 1492 1495 1497 1500 1504 1507 1509 1511 1513 1515 1516 1518 1519 1522 1523 1524 1526 1526 1528 1529 1529 1531 1532 1533 1534 1535 1536 1537 1539 1541 1542 1544 1545 1545 1546 1546 1546 1546 1546
1381 1390 1400 1406 1402 1398 1396 1393 1392 1393 1394 1397 1399 1399 1402 1404 1407 1416 1421 1418 1421 1423 1422 1432 1442 1430 1413 1409 1411 1413 1415 1418 1425 1430 1436 1445 1452 1455 1460 1464 1469 1472 1475 1479 1483 1485 1489 1492 1495 1498 1500 1503 1506 1508 1510 1512 1514 1515 1517 1518 1520 1522 1523 1525 1526 1528 1529 1530 1531 1532 1533 1534 1535 1537 1538 1539 1541 1542 1543 1544 1545 1545 1546 1546 1546 1546
1385 1391 1399 1408 1412 1410 1407 1404 1400 1397 1398 1400 1399 1398 1401 1403 1405 1411 1413 1415 1422 1423 1420 1431 1442 1431 1414 1410 1415 1420 1422 1423 1428 1432 1436 1443 1451 1457 1460 1464 1468 1472 1475 1479 1482 1485 1488 1491 1495 1497 1500 1502 1505 1507 1510 1512 1514 1515 1516 1518 1519 1521 1523 1525 1527 1528 1529 1530 1531 1532 1533 1534 1536 1537 1538 1540 1541 1542 1543 1544 1544 1545 1545 1545 1546 1546
1387 1391 1395 1407 1419 1422 1420 1415 1409 1403 1402 1402 1399 1397 1400 1402 1405 1412 1417 1423 1428 1423 1417 1426 1436 1429 1417 1415 1420 1425 1430 1431 1432 1436 1439 1443 1451 1458 1461 1464 1468 1471 1474 1477 1481 1484 1487 1490 1494 1497 1500 1502 1504 1507 1510 1512 1514 1515 1516 1517 1519 1521 1523 1525 1526 1528 1529 1530 1531 1532 1533 1535 1536 1537 1539 1540 1541 1542 1543 1543 1544 1545 1545 1546 1546 1546
1387 1390 1391 1399 1408 1411 1411 1407 1401 1399 1403 1407 1404 1399 1399 1402 1405 1410 1418 1425 1425 1421 1420 1424 1427 1426 1424 1425 1427 1427 1431 1436 1438 1442 1445 1448 1454 1459 1461 1464 1467 1470 1473 1476 1480 1484 1486 1490 1494 1497 1500 1502 1505 1508 1511 1513 1514 1514 1516 1518 1520 1521 1523 1525 1526 1527 1529 1530 1530 1532 1533 1534 1536 1537 1539 1540 1541 1542 1543 1544 1544 1545 1545 1546 1546 1547
1390 1393 1392 1394 1398 1398 1397 1397 1396 1398 1403 1407 1406 1402 1400 1401 1405 1412 1418 1419 1416 1420 1427 1425 1420 1424 1430 1432 1431 1429 1431 1435 1439 1443 1447 1450 1454 1458 1461 1465 1467 1471 1473 1476 1479 1483 1486 1490 1493 1497 1500 1503 1506 1509 1511 1513 1514 1515 1517 1519 1520 1522 1523 1525 1526 1527 1529 1530 1530 1532 1533 1534 1536 1537 1539 1540 1540 1542 1542 1543 1544 1545 1545 1546 1546 1547
1392 1396 1393 1394 1397 1394 1391 1393 1395 1398 1402 1404 1404 1403 1402 1402 1406 1412 1415 1413 1412 1420 1428 1425 1419 1423 1431 1432 1432 1430 1430 1433 1437 1441 1445 1448 1452 1456 1460 1464 1467 1470 1473 1475 1479 1482 1485 1488 1492 1496 1500 1503 1506 1509 1511 1514 1515 1516 1518 1519 1520 1521 1522 1524 1526 1527 1529 1529 1530 1532 1533 1534 1536 1537 1538 1539 1540 1541 1542 1543 1544 1545 1545 1546 1547 1548
1392 1397 1396 1397 1401 1398 1392 1391 1393 1397 1401 1402 1402 1402 1403 1403 1405 1409 1411 1410 1412 1418 1421 1419 1419 1426 1431 1432 1432 1431 1431 1433 1438 1442 1446 1449 1451 1454 1458 1463 1466 1469 1472 1474 1478 1481 1484 1488 1491 1496 1501 1503 1506 1508 1511 1513 1514 1515 1517 1518 1519 1520 1521 1523 1525 1526 1528 1529 1530 1532 1533 1534 1535 1537 1538 1539 1540 1541 1542 1543 1544 1545 1546 1546 1548 1549
1393 1400 1399 1399 1405 1403 1393 1389 1392 1395 1399 1402 1402 1402 1403 1405 1405 1405 1407 1408 1412 1418 1419 1416 1422 1432 1434 1430 1431 1433 1434 1436 1441 1445 1448 1450 1452 1455 1459 1462 1465 1468 1471 1474 1477 1480 1484 1489 1492 1494 1498 1501 1504 1507 1508 1510 1512 1514 1516 1517 1518 1519 1521 1523 1524 1525 1528 1529 1531 1532 1533 1534 1535 1537 1538 1539 1540 1541 1542 1544 1545 1546 1546 1547 1548 1549
1395 1402 1400 1401 1410 1407 1394 1391 1395 1395 1397 1403 1406 1404 1404 1406 1406 1404 1405 1407 1410 1417 1422 1422 1425 1435 1435 1431 1432 1435 1435 1437 1441 1444 1447 1450 1452 1454 1458 1461 1464 1467 1470 1473 1477 1479 1482 1487 1491 1493 1495 1498 1502 1505 1507 1507 1509 1512 1514 1517 1518 1520 1521 1523 1524 1525 1527 1529 1531 1532 1532 1534 1535 1536 1538 1539 1540 1541 1542 1544 1545 1546 1547 1547 1548 1549
1397 1402 1403 1407 1414 1407 1395 1394 1397 1398 1406 1412 1411 1408 1406 1404 1404 1403 1403 1405 1406 1411 1420 1423 1422 1427 1429 1429 1434 1437 1437 1438 1440 1442 1445 1449 1453 1456 1458 1461 1464 1466 1469 1472 1475 1478 1480 1484 1488 1491 1493 1496 1499 1503 1506 1507 1509 1511 1513 1515 1518 1519 1521 1522 1523 1525 1527 1529 1531 1531 1532 1534 1535 1536 1538 1539 1540 1542 1543 1544 1545 1546 1547 1548 1548 1550
1399 1402 1405 1409 1412 1406 1398 1396 1399 1408 1419 1418 1410 1408 1406 1403 1404 1406 1405 1405 1405 1407 1412 1416 1417 1422 1426 1426 1428 1433 1435 1436 1438 1441 1444 1446 1451 1456 1460 1462 1465 1467 1470 1472 1474 1477 1479 1482 1486 1490 1492 1494 1497 1499 1503 1507 1509 1511 1513 1515 1516 1518 1520 1521 1523 1525 1527 1529 1530 1531 1532 1534 1535 1536 1538 1539 1540 1541 1543 1544 1545 1546 1547 1548 1549 1550
1401 1403 1406 1408 1408 1405 1400 1402 1414 1425 1422 1411 1405 1405 1404 1403 1404 1406 1405 1404 1404 1406 1409 1415 1419 1422 1424 1425 1424 1428 1433 1436 1439 1442 1444 1446 1448 1452 1458 1462 1465 1467 1469 1471 1473 1476 1478 1479 1482 1488 1491 1493 1495 1498 1501 1504 1507 1511 1514 1515 1517 1518 1519 1520 1522 1525 1527 1529 1530 1531 1532 1533 1534 1536 1537 1539 1540 1542 1543 1544 1545 1546 1547 1548 1549 1550
1402 1405 1407 1406 1406 1406 1407 1413 1425 1426 1413 1403 1403 1403 1402 1404 1405 1408 1411 1407 1405 1405 1407 1414 1419 1419 1421 1425 1427 1430 1434 1438 1441 1443 1445 1447 1449 1450 1454 1458 1461 1463 1465 1468 1470 1474 1477 1477 1480 1485 1490 1492 1495 1498 1500 1502 1505 1509 1512 1515 1518 1519 1520 1520 1522 1524 1526 1528 1530 1531 1532 1533 1534 1535 1537 1538 1540 1541 1543 1544 1545 1546 1547 1548 1549 1550
1401 1405 1407 1408 1408 1410 1415 1418 1418 1417 1414 1408 1405 1402 1403 1407 1408 1413 1417 1412 1406 1405 1406 1410 1416 1418 1420 1424 1426 1430 1435 1439 1444 1447 1446 1448 1449 1450 1452 1454 1458 1461 1464 1468 1471 1473 1477 1479 1481 1484 1487 1491 1494 1497 1499 1501 1504 1507 1510 1513 1517 1520 1521 1521 1522 1524 1526 1527 1529 1530 1532 1533 1534 1535 1536 1538 1540 1541 1542 1544 1545 1546 1547 1548 1549 1550
1401 1404 1406 1411 1413 1413 1419 1422 1421 1425 1426 1416 1407 1402 1402 1406 1406 1409 1416 1415 1408 1406 1407 1408 1412 1416 1420 1423 1426 1429 1433 1440 1445 1446 1444 1446 1448 1450 1452 1455 1458 1461 1463 1467 1471 1474 1477 1480 1482 1485 1487 1490 1494 1497 1499 1501 1503 1506 1509 1512 1514 1518 1522 1523 1523 1524 1526 1527 1528 1530 1531 1533 1534 1535 1536 1538 1539 1541 1542 1543 1545 1546 1547 1549 1550 1551
1403 1404 1404 1411 1415 1415 1421 1427 1427 1428 1424 1413 1406 1402 1402 1405 1404 1407 1419 1421 1411 1407 1409 1409 1411 1414 1417 1422 1425 1426 1431 1439 1443 1441 1440 1443 1446 1447 1451 1454 1457 1461 1463 1466 1469 1473 1477 1480 1482 1485 1488 1491 1494 1496 1498 1501 1504 1506 1509 1511 1512 1514 1519 1523 1523 1524 1526 1527 1528 1530 1531 1532 1534 1535 1536 1538 1539 1541 1542 1543 1545 1546 1548 1549 1550 1551
1406 1406 1407 1413 1417 1417 1420 1424 1424 1423 1417 1409 1405 1404 1404 1405 1404 1413 1429 1427 1413 1409 1411 1410 1412 1413 1413 1416 1421 1423 1427 1432 1434 1433 1435 1440 1443 1446 1448 1451 1454 1459 1462 1466 1469 1472 1476 1479 1482 1484 1487 1490 1492 1495 1498 1501 1504 1505 1507 1510 1511 1510 1514 1521 1523 1524 1526 1527 1528 1529 1530 1532 1533 1535 1537 1538 1540 1541 1542 1543 1545 1546 1548 1549 1551 1552
1409 1408 1410 1414 1417 1417 1419 1421 1422 1420 1414 1407 1404 1404 1404 1406 1412 1423 1431 1423 1412 1411 1411 1410 1413 1415 1413 1414 1417 1418 1420 1420 1422 1426 1433 1438 1441 1444 1447 1450 1454 1458 1462 1466 1469 1472 1475 1478 1481 1483 1486 1489 1491 1495 1497 1500 1502 1505 1507 1509 1511 1510 1513 1519 1522 1523 1525 1526 1528 1529 1530 1532 1533 1535 1537 1539 1540 1541 1543 1544 1545 1546 1548 1549 1551 1552
1414 1412 1413 1415 1418 1419 1418 1419 1422 1421 1412 1405 1405 1405 1404 1412 1422 1425 1420 1414 1412 1411 1410 1409 1412 1413 1414 1415 1415 1415 1416 1417 1419 1424 1430 1435 1439 1442 1446 1450 1454 1458 1462 1465 1469 1471 1474 1477 1480 1483 1486 1489 1491 1494 1496 1499 1502 1504 1506 1508 1510 1511 1513 1517 1520 1522 1524 1526 1527 1528 1530 1532 1534 1535 1537 1539 1540 1541 1542 1544 1545 1547 1548 1550 1551 1552
1412 1414 1418 1416 1416 1419 1420 1421 1425 1424 1413 1405 1407 1408 1408 1414 1420 1417 1412 1412 1412 1410 1409 1410 1410 1410 1411 1413 1414 1415 1416 1418 1420 1424 1428 1434 1437 1440 1444 1448 1451 1455 1459 1463 1466 1470 1472 1475 1479 1482 1485 1489 1491 1494 1496 1498 1500 1503 1505 1507 1509 1510 1513 1516 1519 1521 1523 1525 1527 1528 1530 1532 1533 1535 1537 1539 1540 1541 1542 1543 1545 1547 1549 1550 1551 1552
1409 1413 1418 1415 1413 1418 1424 1424 1422 1418 1411 1407 1409 1411 1412 1413 1413 1412 1412 1412 1411 1410 1411 1410 1409 1409 1409 1409 1412 1415 1417 1420 1423 1426 1430 1434 1436 1439 1443 1447 1450 1454 1458 1462 1466 1469 1472 1475 1478 1481 1485 1488 1490 1493 1495 1497 1499 1501 1503 1506 1508 1510 1513 1516 1518 1521 1523 1525 1526 1528 1530 1532 1533 1535 1537 1538 1540 1541 1542 1543 1545 1547 1549 1551 1552 1553
1408 1408 1412 1413 1412 1414 1418 1418 1415 1412 1410 1409 1410 1411 1411 1412 1412 1413 1413 1413 1413 1413 1413 1411 1410 1409 1408 1409 1411 1414 1417 1420 1424 1427 1430 1432 1435 1438 1442 1446 1450 1453 1457 1462 1466 1468 1471 1474 1477 1480 1484 1487 1489 1492 1494 1496 1497 1499 1502 1504 1507 1509 1512 1515 1518 1520 1522 1524 1526 1527 1529 1531 1533 1535 1537 1538 1540 1541 1542 1544 1545 1547 1549 1551 1552 1553
1406 1405 1408 1412 1413 1414 1414 1413 1413 1414 1413 1411 1411 1412 1412 1413 1414 1414 1414 1415 1415 1415 1414 1414 1412 1408 1407 1409 1412 1414 1417 1420 1424 1428 1430 1432 1435 1438 1441 1445 1450 1453 1457 1461 1465 1468 1471 1474 1477 1480 1483 1485 1488 1490 1492 1494 1496 1498 1501 1503 1506 1509 1512 1514 1517 1519 1521 1523 1525 1527 1529 1531 1533 1535 1537 1538 1540 1541 1543 1544 1546 1547 1549 1550 1552 1553
1407 1407 1408 1410 1413 1416 1417 1416 1415 1417 1417 1414 1413 1414 1414 1415 1415 1416 1416 1416 1416 1416 1416 1416 1414 1412 1410 1411 1412 1415 1419 1421 1423 1427 1430 1432 1435 1438 1441 1444 1448 1452 1456 1459 1463 1467 1470 1473 1476 1479 1481 1484 1487 1489 1491 1494 1496 1498 1500 1503 1506 1509 1511 1513 1515 1517 1520 1522 1524 1526 1529 1531 1533 1535 1537 1539 1540 1541 1543 1544 1545 1547 1548 1550 1551 1552
1414 1411 1411 1411 1412 1415 1417 1416 1415 1417 1418 1415 1415 1415 1415 1416 1416 1416 1417 1417 1416 1417 1417 1417 1416 1415 1414 1414 1415 1417 1421 1423 1424 1426 1429 1432 1435 1437 1440 1443 1447 1451 1455 1459 1462 1466 1469 1471 1474 1477 1480 1483 1485 1488 1491 1493 1495 1498 1500 1503 1505 1507 1509 1512 1514 1517 1519 1522 1524 1526 1528 1531 1533 1534 1536 1538 1539 1541 1542 1543 1545 1547 1548 1549 1551 1551
1417 1416 1414 1413 1414 1417 1419 1418 1417 1418 1417 1416 1417 1417 1416 1417 1417 1417 1418 1418 1417 1417 1418 1418 1418 1417 1417 1417 1418 1419 1422 1426 1426 1426 1429 1432 1434 1437 1440 1443 1446 1450 1454 1458 1461 1464 1467 1470 1473 1476 1479 1482 1484 1487 1489 1491 1494 1497 1499 1501 1504 1506 1508 1511 1514 1517 1519 1521 1523 1526 1528 1530 1532 1534 1535 1536 1538 1539 1541 1544 1545 1546 1548 1549 1550 1551
1416 1417 1415 1414 1418 1422 1423 1420 1418 1419 1418 1417 1417 1417 1417 1417 1417 1418 1418 1418 1418 1419 1418 1418 1418 1418 1418 1418 1418 1419 1421 1425 1427 1428 1430 1432 1434 1437 1440 1443 1447 1451 1454 1457 1461 1464 1466 1469 1472 1474 1478 1481 1483 1486 1488 1490 1493 1495 1497 1500 1502 1504 1507 1510 1513 1516 1518 1520 1523 1525 1527 1529 1531 1533 1534 1535 1536 1538 1540 1542 1545 1546 1547 1548 1549 1550
1417 1418 1417 1417 1418 1420 1420 1419 1417 1417 1417 1417 1417 1418 1417 1418 1418 1418 1419 1419 1419 1419 1419 1418 1418 1418 1418 1419 1420 1420 1421 1424 1427 1429 1431 1433 1436 1439 1441 1444 1447 1450 1453 1456 1459 1463 1466 1469 1471 1474 1477 1479 1482 1484 1487 1489 1492 1494 1496 1498 1501 1504 1507 1509 1511 1514 1517 1519 1522 1524 1526 1528 1530 1532 1533 1535 1536 1538 1539 1541 1543 1545 1547 1548 1549 1549